Location: Newark
(41.0400°S, 62.7845°W)
Time: 03:50:01
(UTC+00:00)

Explorer 7 - Visible Passes

Search period start: 28 November 2021 00:00
Search period end: 08 December 2021 00:00
Orbit: 483 x 675 km, 50.3° (Epoch: 27 November)

Date Brightness Start Highest point End Pass type
(mag) Time Alt. Az. Time Alt. Az. Time Alt. Az.
28 Nov 8.2 00:56:40 10° W 01:01:08 48° SSW 01:05:51 10° SE visible
28 Nov 9.3 02:38:26 10° WSW 02:42:32 27° S 02:46:45 10° SE visible
28 Nov 8.8 04:19:36 10° SW 04:24:06 35° SSE 04:28:40 10° E visible
28 Nov 7.1 06:00:07 10° WSW 06:05:05 81° NW 06:10:00 10° NE visible
28 Nov 8.7 07:42:02 10° W 07:45:05 16° NW 07:48:04 10° NNW visible
29 Nov 8.7 01:01:02 10° W 01:05:21 38° SSW 01:09:53 10° SE visible
29 Nov 9.3 02:42:46 10° WSW 02:46:52 27° S 02:51:04 10° ESE visible
29 Nov 8.3 04:23:39 10° SW 04:28:21 43° SSE 04:33:04 10° E visible
29 Nov 7.3 06:04:15 10° WSW 06:09:05 55° NW 06:13:51 10° NE visible
30 Nov 9.0 01:05:26 10° WSW 01:09:36 32° SSW 01:13:58 10° SE visible
30 Nov 9.2 02:47:02 10° SW 02:51:11 28° S 02:55:27 10° ESE visible
30 Nov 7.8 04:27:41 10° SW 04:32:31 56° SSE 04:34:28 34° E visible
30 Nov 8.7 06:08:29 10° WSW 06:10:33 22° W 06:10:33 22° W visible
01 Dec 9.2 01:09:51 10° WSW 01:13:54 28° S 01:18:06 10° SE visible
01 Dec 8.9 02:51:12 10° SW 02:55:29 31° SSE 02:59:53 10° ESE visible
01 Dec 7.3 04:31:42 10° SW 04:36:27 76° S 04:36:27 76° S visible
02 Dec 9.2 01:14:14 10° WSW 01:18:13 27° S 01:22:20 10° SE visible
02 Dec 8.6 02:55:17 10° SW 02:59:45 36° SSE 03:02:55 18° ESE visible
02 Dec 8.0 04:35:46 10° WSW 04:39:06 43° WSW 04:39:06 43° WSW visible
03 Dec 9.2 01:18:33 10° SW 01:22:32 26° S 01:26:39 10° ESE visible
03 Dec 8.2 02:59:19 10° SW 03:03:57 45° SSE 03:05:51 30° ESE visible
03 Dec 8.8 04:39:53 10° WSW 04:42:03 25° WSW 04:42:03 25° WSW visible
04 Dec 9.0 01:22:46 10° SW 01:26:50 28° S 01:31:02 10° ESE visible
04 Dec 7.6 03:03:19 10° SW 03:08:06 59° SSE 03:08:58 51° ESE visible
04 Dec 9.4 04:44:09 10° WSW 04:45:10 15° WSW 04:45:10 15° WSW visible
05 Dec 8.8 01:26:54 10° SW 01:31:07 31° SSE 01:35:28 10° ESE visible
05 Dec 7.2 03:07:20 10° SW 03:12:11 82° SSE 03:12:11 82° SSE visible
06 Dec 8.5 01:30:58 10° SW 01:35:20 37° SSE 01:39:17 13° E visible
06 Dec 7.4 03:11:24 10° WSW 03:15:31 60° W 03:15:31 60° W visible
07 Dec 8.0 01:34:58 10° SW 01:39:32 47° SSE 01:42:40 20° E visible
07 Dec 8.1 03:15:32 10° WSW 03:18:54 37° W 03:18:54 37° W visible
